CAPE
0 0 0 0 0 0 0 0 0 0 0 0 0 0 0 0 0 0 0 0 0 0 0 0 0 0 0 0 9 1 0 0 0 1 0 5 2 2 3 1 1 16 6 0
0 0 0 0 0 0 0 0 0 0 0 0 0 0 0 0 0 0 0 0 0 0 0 0 0 0 26 50 16 0 0 0 0 0 0 0 4 1 0 1 3 4 0 0
0 0 0 0 0 0 0 0 0 0 0 0 0 0 0 0 0 0 0 0 0 0 0 0 0 11 84 94 15 0 1 1 0 0 0 0 0 1 1 4 4 1 0 0
0 0 0 0 0 0 0 0 0 0 0 0 0 0 0 0 0 0 0 0 0 0 0 0 0 55 92 111 12 0 0 0 0 0 0 1 0 1 0 0 1 0 2 0
0 0 0 0 0 0 0 0 0 0 0 0 0 0 0 0 0 0 0 0 0 0 0 0 0 42 89 54 1 0 0 0 1 0 0 0 0 0 1 1 1 1 0 1
0 0 0 0 0 0 0 0 0 0 0 0 0 0 0 0 0 0 0 0 0 0 0 0 0 2 49 17 1 0 0 0 0 0 0 0 0 0 1 1 1 1 0 2
0 0 0 0 0 0 0 0 0 0 0 0 0 0 0 0 0 0 0 0 0 0 0 0 0 0 4 7 0 0 0 0 0 0 0 0 0 0 0 0 1 1 1 0
0 0 0 0 0 0 0 0 0 0 0 0 0 0 0 0 0 0 0 0 0 0 0 0 0 0 1 2 0 0 0 0 1 0 0 0 0 0 0 0 0 0 0 0
0 0 0 0 0 0 0 0 0 0 0 0 0 0 0 0 0 0 0 0 0 0 0 0 0 0 0 0 0 0 0 0 0 1 0 0 1 0 0 0 0 0 0 0
0 0 0 0 0 0 0 0 0 1 12 5 0 0 1 0 2 1 0 0 0 0 0 0 0 0 0 0 0 0 0 0 0 0 1 2 2 0 0 0 0 0 0 0
0 0 0 0 0 0 0 0 0 0 0 15 2 0 0 0 1 0 0 2 2 0 38 0 0 0 0 0 0 1 0 0 0 0 0 0 2 0 0 0 0 0 0 0
0 0 0 0 0 0 0 0 0 0 0 13 28 1 1 0 1 0 0 2 5 1 1 0 0 0 0 1 1 2 2 0 1 0 0 0 0 0 2 2 0 0 0 0
0 0 0 1 0 0 0 2 10 10 3 2 2 0 0 2 0 0 0 14 8 3 1 1 0 3 1 1 0 0 0 0 0 0 0 1 0 0 1 5 3 2 0 0
0 0 0 0 0 0 9 20 16 7 2 7 16 0 0 5 1 0 1 34 5 3 2 3 1 2 3 2 2 3 3 3 0 0 1 1 0 0 0 0 3 3 2 1
0 0 0 0 0 0 0 0 0 2 0 7 0 2 0 0 31 12 13 2 0 2 0 1 1 2 3 5 7 7 5 1 5 5 3 1 0 0 0 0 0 0 1 0
0 0 0 0 0 0 0 0 0 0 0 0 4 3 4 5 20 25 36 4 1 2 1 0 0 0 1 2 3 1 0 0 0 0 0 0 0 0 1 0 0 0 0 0
0 0 0 0 0 0 0 0 0 0 0 1 0 0 15 14 13 8 5 4 4 2 2 2 0 0 1 1 1 1 0 0 0 0 0 0 0 0 0 0 0 1 2 1
0 0 0 0 0 0 0 0 0 0 0 0 0 0 16 2 2 4 2 2 6 5 4 3 1 0 0 0 0 0 0 0 0 0 0 0 0 0 0 0 0 0 1 1
0 0 0 0 0 0 0 0 0 0 0 0 0 0 3 0 0 3 5 3 4 3 3 1 0 0 0 0 0 0 0 0 0 0 0 0 0 0 0 0 0 0 1 1
0 0 0 0 0 0 0 0 0 0 0 0 0 0 1 0 4 4 2 3 1 1 0 0 0 0 0 0 0 0 1 0 0 0 0 0 0 0 1 1 1 1 1 3
0 0 1 0 0 0 0 0 0 0 0 0 0 0 0 1 0 5 1 1 0 0 0 0 0 0 0 0 1 1 2 3 0 0 0 0 1 1 2 1 2 2 2 1
0 0 0 0 1 0 0 0 0 3 1 2 1 0 2 1 1 2 2 1 0 0 0 0 0 1 2 2 1 1 1 2 1 1 0 1 1 1 2 2 1 2 2 3
1 1 9 0 0 5 0 0 0 0 1 1 3 1 4 5 3 3 1 0 0 0 0 1 2 1 3 3 2 1 1 0 1 0 1 2 1 0 2 3 0 3 2 2
0 4 2 2 6 18 14 9 2 2 1 2 1 4 8 6 6 4 3 2 0 0 1 1 0 1 3 4 2 3 1 1 1 1 0 0 2 0 0 0 2 2 1 0
6 9 3 4 4 9 8 14 23 11 4 0 0 0 0 0 0 0 1 0 1 1 0 1 1 2 1 0 1 1 0 0 0 1 1 1 1 4 2 3 1 3 2 4
14 9 2 7 7 9 6 9 9 3 3 3 1 0 0 0 0 0 0 0 0 1 1 1 1 1 0 0 0 1 1 0 1 1 1 0 0 0 0 0 1 6 1 2
CIN
-0 -0 -0 -0 -0 -0 -0 -0 -0 -0 -0 -0 -0 -0 -0 -0 -0 -0 -0 -0 -0 -0 -0 -0 -0 -0 -0 -0 -515 -0 -0 -0 -0 -0 -0 -0 -1 -1 -0 -3 -2 -4 -42 -0
-0 -0 -0 -0 -0 -0 -0 -0 -0 -0 -0 -0 -0 -0 -0 -0 -0 -0 -0 -0 -0 -0 -0 -0 -0 -0 -703 -562 -535 -1 -0 -0 -0 -0 -0 -0 -1 -0 -1 -4 -6 -2 -0 -0
-0 -0 -0 -0 -0 -0 -0 -0 -0 -0 -0 -0 -0 -0 -0 -0 -0 -0 -0 -0 -0 -0 -0 -0 -0 -729 -622 -568 -567 -1 -0 -0 -0 -0 -0 -6 -0 -0 -0 -2 -0 -0 -0 -0
-0 -0 -0 -0 -0 -0 -0 -0 -0 -0 -0 -0 -0 -0 -0 -0 -0 -0 -0 -0 -0 -0 -0 -0 -0 -651 -602 -597 -587 -0 -1 -0 -0 -0 -0 -1 -1 -1 -0 -0 -0 -0 -0 -0
-0 -0 -0 -0 -0 -0 -0 -0 -0 -0 -0 -0 -0 -0 -0 -0 -0 -0 -0 -0 -0 -0 -0 -0 -0 -776 -670 -498 -170 -0 -1 -1 -0 -1 -0 -0 -0 -0 -21 -0 -0 -0 -0 -0
-0 -0 -0 -0 -0 -0 -0 -0 -0 -0 -0 -0 -0 -0 -0 -0 -0 -0 -0 -0 -0 -0 -0 -0 -0 -449 -638 -565 -0 -0 -0 -0 -0 -0 -0 -0 -0 -0 -10 -5 -0 -0 -0 -0
-0 -0 -0 -0 -0 -0 -0 -0 -0 -0 -0 -0 -0 -0 -0 -0 -0 -0 -0 -0 -0 -0 -0 -0 -0 -0 -733 -631 -0 -0 -0 -0 -0 -0 -0 -0 -0 -0 -0 -0 -8 -0 -0 -0
-0 -0 -0 -0 -0 -0 -0 -0 -0 -0 -0 -0 -0 -0 -0 -0 -0 -0 -0 -0 -0 -0 -0 -0 -0 -0 -841 -393 -0 -0 -0 -0 -0 -1 -0 -0 -0 -0 -0 -0 -0 -1 -0 -0
-0 -0 -0 -0 -0 -0 -0 -0 -0 -0 -0 -0 -0 -0 -0 -0 -0 -0 -0 -0 -0 -0 -0 -0 -0 -0 -0 -0 -0 -0 -0 -0 -0 -0 -0 -0 -0 -0 -0 -0 -0 -0 -0 -0
-0 -0 -0 -0 -0 -0 -0 -0 -0 -0 -0 -0 -0 -0 -18 -0 -1 -3 -0 -0 -0 -0 -0 -0 -0 -0 -0 -0 -0 -0 -0 -0 -0 -0 -1 -3 -1 -0 -0 -1 -0 -0 -0 -0
-0 -0 -0 -0 -0 -0 -0 -0 -0 -0 -0 -0 -1 -0 -0 -0 -0 -0 -0 -1 -0 -0 -451 -0 -0 -0 -0 -0 -0 -0 -0 -0 -0 -0 -0 -3 -3 -0 -18 -0 -0 -0 -0 -0
-0 -0 -0 -0 -0 -0 -0 -0 -0 -0 -0 -2 -0 -1 -2 -0 -13 -0 -14 -0 -0 -0 -0 -0 -0 -0 -0 -0 -0 -0 -0 -0 -1 -0 -0 -2 -0 -0 -24 -33 -0 -0 -0 -0
-0 -0 -0 -11 -2 -0 -0 -3 -6 -11 -0 -0 -0 -0 -0 -59 -0 -0 -6 -0 -0 -0 -0 -0 -0 -0 -0 -0 -0 -0 -0 -0 -1 -0 -1 -0 -0 -0 -5 -27 -32 -46 -43 -2
-0 -0 -0 -0 -0 -0 -10 -8 -8 -6 -1 -0 -0 -0 -0 -10 -19 -0 -0 -0 -0 -0 -0 -0 -0 -0 -0 -0 -0 -0 -0 -0 -0 -0 -0 -0 -0 -0 -0 -0 -27 -27 -32 -32
-0 -0 -0 -0 -0 -0 -0 -0 -0 -2 -0 -0 -0 -0 -0 -2 -2 -17 -2 -4 -0 -0 -0 -0 -0 -0 -0 -0 -0 -0 -0 -0 -0 -0 -0 -0 -0 -0 -0 -0 -0 -6 -17 -5
-0 -0 -0 -0 -0 -0 -0 -0 -0 -0 -0 -0 -0 -0 -2 -1 -3 -0 -0 -10 -0 -0 -0 -0 -0 -0 -0 -0 -0 -0 -0 -0 -0 -0 -0 -0 -0 -0 -0 -0 -0 -0 -0 -0
-0 -0 -0 -0 -0 -0 -0 -0 -0 -0 -0 -18 -0 -0 -12 -0 -5 -0 -0 -0 -0 -0 -0 -0 -0 -0 -0 -0 -0 -0 -0 -0 -0 -0 -0 -0 -0 -0 -0 -0 -0 -0 -0 -0
-0 -0 -0 -0 -0 -0 -0 -0 -0 -0 -0 -12 -0 -0 -13 -0 -0 -0 -0 -0 -0 -0 -0 -0 -0 -0 -0 -0 -0 -0 -0 -0 -0 -0 -0 -0 -0 -0 -0 -0 -0 -0 -0 -0
-0 -0 -0 -0 -0 -0 -0 -0 -0 -0 -0 -0 -0 -0 -0 -0 -0 -0 -0 -0 -0 -0 -0 -0 -0 -0 -0 -0 -0 -0 -0 -0 -0 -0 -0 -0 -0 -0 -0 -0 -0 -0 -0 -0
-0 -0 -0 -0 -0 -0 -0 -0 -0 -0 -0 -0 -0 -0 -0 -0 -0 -0 -0 -0 -0 -0 -0 -0 -0 -0 -0 -0 -0 -0 -0 -0 -0 -0 -0 -0 -0 -0 -0 -0 -0 -0 -0 -0
-0 -0 -0 -0 -1 -0 -0 -0 -0 -0 -0 -0 -0 -0 -0 -0 -0 -0 -0 -0 -0 -0 -0 -0 -0 -0 -0 -0 -0 -0 -0 -0 -0 -0 -0 -0 -0 -0 -0 -0 -0 -0 -0 -0
-0 -0 -0 -0 -1 -0 -0 -0 -0 -0 -0 -0 -0 -0 -0 -0 -0 -0 -0 -0 -0 -0 -0 -0 -0 -0 -0 -0 -0 -0 -0 -0 -0 -0 -0 -0 -0 -0 -0 -0 -0 -0 -0 -0
-2 -7 -3 -0 -0 -0 -0 -0 -0 -0 -0 -0 -0 -0 -0 -0 -0 -0 -0 -0 -0 -0 -0 -0 -0 -0 -0 -0 -0 -0 -0 -0 -0 -0 -0 -0 -0 -0 -0 -0 -0 -0 -0 -0
-0 -0 -1 -0 -0 -0 -0 -0 -0 -0 -0 -0 -0 -0 -0 -0 -0 -0 -0 -0 -0 -0 -0 -0 -0 -0 -0 -0 -0 -0 -0 -0 -0 -0 -0 -0 -0 -0 -0 -0 -0 -0 -0 -0
-0 -0 -0 -0 -0 -0 -0 -0 -0 -0 -0 -0 -0 -0 -0 -0 -0 -0 -0 -0 -0 -0 -0 -0 -0 -0 -0 -0 -0 -0 -0 -0 -0 -0 -0 -0 -0 -0 -0 -0 -0 -0 -0 -0
-0 -0 -0 -0 -0 -0 -0 -0 -0 -0 -0 -0 -0 -0 -0 -0 -0 -0 -0 -0 -0 -0 -0 -0 -0 -0 -0 -0 -0 -0 -0 -0 -0 -0 -0 -0 -0 -0 -0 -0 -0 -0 -0 -0
Wind_Speed
6 5 9 8 10 5 2 3 4 3 6 4 9 16 6 9 6 8 9 10 10 11 9 10 9 12 13 12 14 13 12 11 8 6 5 3 4 3 3 3 5 11 8 9
3 12 8 8 6 5 5 5 5 6 5 3 8 22 9 9 11 10 11 11 12 7 7 5 9 13 16 16 14 13 13 12 9 7 6 3 4 2 3 3 6 8 13 12
7 3 10 12 6 7 5 6 4 6 4 4 7 27 12 5 7 8 8 12 9 11 9 8 12 15 16 18 18 15 15 13 10 9 6 3 4 3 2 4 4 4 12 14
4 5 4 5 6 7 6 7 6 3 2 4 4 17 15 15 21 9 13 10 14 11 8 8 12 15 17 18 15 15 14 14 10 13 9 9 7 4 2 2 4 6 10 13
6 3 6 4 6 8 5 5 6 3 3 2 2 5 5 10 21 23 16 15 14 11 11 14 17 19 16 15 14 14 14 14 13 12 13 11 8 4 6 4 7 5 5 13
7 1 4 5 4 4 10 5 4 4 2 3 7 7 8 5 4 17 20 17 13 12 10 13 14 10 13 15 13 13 16 16 13 12 12 13 10 8 7 6 6 6 5 5
2 2 2 6 8 4 3 5 4 6 2 4 5 6 17 17 17 13 19 16 11 10 9 10 15 16 19 19 18 15 18 17 14 13 12 13 10 11 11 8 6 7 7 4
7 2 8 5 5 7 2 5 6 4 3 3 4 8 9 2 6 13 17 15 12 11 8 10 16 18 20 21 20 19 16 15 15 13 12 12 8 7 7 8 6 7 8 7
5 1 2 3 4 6 2 4 2 4 3 1 5 8 7 12 17 21 20 22 19 15 11 11 15 17 18 21 23 20 18 14 14 14 10 10 10 7 7 7 6 6 4 7
4 6 4 2 5 10 4 7 5 2 3 4 5 6 3 12 15 18 22 24 22 21 14 13 14 14 13 13 16 14 15 14 11 10 10 8 9 7 8 8 9 8 5 6
2 4 1 4 2 7 3 3 5 3 3 3 4 5 2 6 8 12 18 22 19 19 11 7 10 10 11 12 14 11 13 13 12 10 9 8 8 8 7 8 7 7 7 7
3 4 4 4 4 4 4 4 4 4 3 5 4 7 3 6 6 8 17 20 15 15 16 14 12 12 11 11 11 10 9 12 9 9 9 9 10 8 6 6 7 8 9 8
2 3 3 3 3 7 6 2 4 4 1 4 4 6 1 6 3 4 13 19 13 15 17 17 17 12 11 11 11 9 8 8 9 9 9 9 10 8 7 9 7 7 7 8
6 4 5 3 3 1 2 3 2 4 3 4 7 11 6 8 5 5 7 14 13 14 19 17 16 17 15 15 13 10 9 3 8 7 7 7 7 8 8 6 9 8 9 9
5 4 4 4 2 2 2 5 8 9 10 8 8 12 15 17 8 1 10 11 16 19 19 18 17 17 16 16 14 12 11 10 5 6 7 8 7 6 6 6 7 8 8 8
5 2 2 1 3 4 3 10 6 9 11 12 15 17 6 13 6 6 7 10 13 13 15 16 16 17 16 18 15 13 13 11 13 12 11 10 12 7 3 4 8 9 11 12
2 3 2 2 1 4 4 3 5 7 5 5 6 4 2 12 10 7 14 13 12 12 13 15 15 14 16 20 15 13 11 13 13 12 12 12 11 10 10 9 9 10 8 5
3 3 2 2 3 2 5 7 3 5 5 8 7 4 7 9 11 18 13 15 12 12 13 13 12 12 15 12 9 7 11 13 11 13 13 12 11 11 11 10 10 9 8 7
3 4 2 1 1 5 11 2 3 3 11 6 6 1 14 13 10 12 14 14 14 12 11 12 12 12 12 12 11 10 12 12 11 13 12 11 10 11 10 11 11 9 8 7
6 4 3 0 1 2 5 2 5 3 9 11 11 9 14 11 2 2 9 9 13 12 11 11 11 11 12 13 11 10 11 10 12 12 11 10 9 10 11 10 10 9 7 8
3 2 3 3 4 6 5 11 7 3 5 9 10 10 8 7 7 10 11 13 14 13 14 12 11 11 12 10 9 11 11 12 11 10 10 11 10 10 11 10 9 9 8 8
3 4 3 2 3 7 10 3 4 3 7 10 12 14 16 15 15 15 12 13 13 14 14 15 12 12 12 12 11 12 12 10 10 8 10 10 11 10 9 10 10 9 9 8
3 2 2 5 3 6 7 10 11 10 10 11 13 13 13 9 11 10 11 11 12 14 11 11 10 12 12 13 13 12 11 10 9 8 10 12 12 11 9 11 12 8 9 8
4 5 2 3 8 12 11 11 12 12 11 12 14 13 11 11 10 10 9 9 10 10 10 10 12 12 11 12 12 12 12 9 9 10 10 11 11 12 12 9 10 10 10 10
3 8 6 2 4 5 11 12 8 10 11 13 14 13 12 11 11 9 9 9 9 10 11 11 10 10 12 12 11 12 11 9 8 8 9 9 8 9 10 13 11 11 13 13
3 3 3 3 6 3 5 9 10 11 12 11 10 11 12 11 10 10 10 9 10 11 10 9 10 10 9 9 10 10 11 9 6 8 7 7 6 6 6 5 7 23 21 25
Wind_Direction
180 174 202 176 195 191 195 222 229 259 270 297 265 275 269 282 261 255 258 270 269 264 257 231 197 166 153 165 169 172 161 164 156 160 166 179 177 165 192 146 166 152 140 136
148 234 202 198 178 184 212 238 256 267 252 270 288 282 265 233 257 226 240 248 253 260 273 205 164 171 172 172 173 172 175 162 167 168 185 154 133 160 120 142 176 174 152 153
193 232 177 179 172 167 195 202 207 242 317 285 316 286 271 236 248 272 232 237 243 238 246 196 181 182 175 179 180 176 177 167 171 168 169 120 96 100 113 155 165 138 156 158
219 244 158 158 191 160 190 198 188 154 54 265 12 290 300 310 297 279 263 237 234 232 223 189 175 182 196 188 174 172 176 169 175 175 174 176 175 162 136 137 127 145 155 160
229 180 172 168 193 159 190 152 144 145 142 30 43 310 79 334 296 296 277 254 242 236 213 188 186 194 176 190 175 171 171 174 173 173 181 181 174 162 138 136 141 143 138 167
191 221 171 165 54 135 141 111 68 53 77 336 205 178 321 220 260 326 304 278 256 246 220 206 195 164 170 170 178 174 173 181 174 176 184 184 170 153 145 161 157 160 143 156
130 196 145 120 86 32 108 86 5 6 21 250 313 227 259 286 315 328 331 321 278 253 227 197 166 169 172 177 177 183 176 182 173 178 186 189 177 168 162 166 173 166 159 169
155 216 161 178 163 155 82 133 145 193 216 241 324 243 252 21 8 352 346 336 329 330 268 196 183 178 178 178 176 181 178 175 170 178 183 193 175 173 168 166 173 189 188 173
139 219 78 92 131 140 180 86 126 81 229 31 236 282 301 12 9 354 346 342 341 328 294 225 194 184 174 181 182 178 173 176 176 184 172 184 193 176 178 165 174 197 173 164
187 99 36 122 85 35 126 146 89 82 260 270 258 257 289 2 354 337 347 343 340 334 298 228 197 171 171 173 179 170 173 181 167 173 184 180 196 169 165 167 176 177 173 173
78 83 17 127 140 153 118 116 71 116 194 269 304 284 231 295 342 345 338 335 346 341 336 94 104 121 143 156 169 160 170 175 168 168 173 180 187 179 166 171 168 171 170 176
3 102 91 73 335 145 96 109 118 129 224 236 298 272 28 271 272 346 332 330 353 3 15 41 76 104 113 138 147 148 149 168 161 162 168 184 192 175 178 174 170 176 180 184
333 25 105 118 26 23 58 88 106 92 266 236 267 269 198 279 332 340 351 331 10 17 36 42 48 65 85 107 116 127 141 153 163 166 174 180 183 172 186 180 181 181 182 182
72 55 78 104 164 115 77 330 226 178 243 289 259 286 304 284 304 343 35 333 11 24 40 38 43 44 47 51 60 66 55 147 161 159 170 173 182 187 190 189 178 187 195 200
69 76 54 40 359 176 226 249 246 216 233 256 276 293 301 297 278 208 73 31 28 22 33 32 33 40 38 41 35 40 40 35 145 157 175 193 198 183 202 204 202 192 196 213
359 107 67 346 336 14 295 268 267 258 263 242 269 281 292 315 263 144 102 94 66 41 35 43 36 41 37 39 24 27 29 33 53 57 55 45 43 44 352 268 224 219 221 218
67 118 94 224 353 321 289 223 275 269 231 205 233 249 305 24 1 145 85 74 54 49 42 39 34 33 35 38 15 17 25 39 42 53 47 40 37 39 28 20 28 30 1 285
144 103 100 221 297 228 240 328 229 303 275 228 267 352 96 101 73 43 83 91 59 48 38 38 36 33 42 38 12 11 35 43 36 43 38 32 31 34 27 23 16 9 3 1
159 99 59 102 255 296 312 95 48 319 306 7 311 232 143 116 68 49 45 64 79 58 47 39 34 31 35 27 9 19 41 32 36 38 35 29 22 30 24 20 10 2 356 2
73 80 109 179 41 275 261 208 343 282 294 355 324 252 160 151 125 82 63 53 68 63 60 49 35 35 26 19 10 30 41 36 34 31 27 29 27 35 30 17 8 358 359 22
50 59 218 239 269 287 327 324 315 234 286 5 19 44 67 72 73 91 64 50 46 38 38 38 42 43 31 19 21 41 28 38 38 27 26 30 30 38 30 28 22 15 19 36
186 145 205 193 246 257 348 352 340 92 61 59 58 75 83 84 80 77 57 49 42 33 28 31 29 24 18 17 24 32 26 26 41 38 40 39 33 34 26 27 30 26 31 40
20 75 312 204 255 87 34 80 43 60 69 56 74 72 83 74 79 80 76 55 41 38 27 27 33 27 19 16 21 21 9 22 39 42 42 50 44 40 32 38 39 37 37 40
359 29 291 315 16 37 47 53 64 59 61 57 62 66 70 81 73 70 74 62 62 49 40 33 31 29 20 17 19 13 9 21 36 40 40 51 55 47 42 42 41 39 40 46
6 314 336 247 28 323 38 24 42 55 63 61 54 52 66 81 78 81 76 73 66 61 49 42 35 28 20 15 19 13 15 16 42 41 43 38 38 46 52 51 43 46 47 50
357 358 341 356 333 34 36 39 39 57 55 47 52 52 49 67 73 74 68 58 58 63 55 51 47 40 21 23 21 17 17 19 49 61 50 37 37 35 37 47 60 55 58 58